Location: Saluda
(35.2377°N, 82.3468°W)
Time: 17:58:47
(UTC+00:00)

Transit 2A - Pass Details

Date: 06 October 2022
Orbit: 598 x 959 km, 66.7° (Epoch: 06 December)

Event Time Altitude Azimuth Distance (km) Brightness Sun altitude
Rises 14:21:50 0° 305° (NW) 3,089 8.6 32.2°
Reaches altitude 10° 14:25:55 10° 271° (W) 2,259 8.1 32.9°
Maximum altitude 14:27:25 11° 254° (WSW) 2,207 8.2 33.1°
Drops below altitude 10° 14:28:58 10° 237° (WSW) 2,327 8.4 33.4°
Sets 14:33:24 0° 205° (SSW) 3,355 9.5 34.1°
